Hong Kong, Hong Kong

1:53 PM HKT on July 26, 2017 (GMT +0800)
Hong Kong International

Weather History for VHHH - March, 2013

Change the Weather History Date:

Wednesday, March 6, 2013

  Actual Average Record
Temperature  
Mean Temperature 68 °F -  
Max Temperature 75 °F 72 °F 80 °F (1999)
Min Temperature 62 °F 64 °F 53 °F (2003)
Cooling Degree Days 4    
Growing Degree Days 18 (Base 50)    
Moisture  
Dew Point 49 °F    
Average Humidity 49    
Maximum Humidity 68    
Minimum Humidity 31    
Precipitation  
Precipitation 0.00 in - - ()
Sea Level Pressure  
Sea Level Pressure 30.13 in    
Wind  
Wind Speed 11 mph ()    
Max Wind Speed 17 mph    
Max Gust Speed -    
Visibility 6.5 miles    
Events      
Averages and records for this station are not official NWS values.
T = Trace of Precipitation, MM = Missing Value Source: Averaged Metar Reports

Daily Weather History Graph

Daily Weather History Graph

Search for Another Location

Airport or City:

Trip Planner

Search our weather history database for the weather conditions in past years. The results will help you decide how hot, cold, wet, or windy it might be!

Date:

Astronomy

Mar. 06, 2013 Rise Set
Actual Time 6:41 AM HKT 6:30 PM HKT
Civil Twilight 6:19 AM HKT 6:52 PM HKT
Nautical Twilight 5:53 AM HKT 7:18 PM HKT
Astronomical Twilight 5:27 AM HKT 7:44 PM HKT
Moon 1:49 AM HKT (3/6) 1:05 PM HKT (3/6)
Length of Visible Light 12h 33m
Length of Day
11h 48m
Waning Crescent, 36% of the Moon is Illuminated
Mar 6
Waning Crescent
Mar 12
New
Mar 20
First Quarter
Mar 27
Full
Apr 3
Last Quarter

Hourly Weather History & Observations

Time (HKT) Temp. Dew Point Humidity Pressure Visibility Wind Dir Wind Speed Gust Speed Precip Events Conditions
12:00 AM 66.2 °F 48.2 °F 52% 30.18 in - East 13.8 mph - N/A   Clear
12:30 AM 66.2 °F 50.0 °F 56% 30.18 in - East 13.8 mph - N/A   Clear
1:00 AM 66.2 °F 51.8 °F 60% 30.15 in - East 15.0 mph - N/A   Clear
1:30 AM 64.4 °F 51.8 °F 64% 30.15 in - East 15.0 mph - N/A   Clear
2:00 AM 64 °F 53 °F 58% 30.16 in 7 mi East 15.7 mph - -   Scattered Clouds
2:00 AM 64.4 °F 53.6 °F 68% 30.15 in - East 16.1 mph - N/A   Clear
2:30 AM 64.4 °F 53.6 °F 68% 30.15 in - East 16.1 mph - N/A   Clear
3:00 AM 64.4 °F 51.8 °F 64% 30.15 in 6.2 mi East 17.3 mph - N/A   Partly Cloudy
3:30 AM 64.4 °F 50.0 °F 59% 30.12 in 6.2 mi East 15.0 mph - N/A   Partly Cloudy
4:00 AM 62.6 °F 50.0 °F 63% 30.12 in 6.2 mi East 17.3 mph - N/A   Partly Cloudy
4:30 AM 62.6 °F 50.0 °F 63% 30.12 in 6.2 mi East 16.1 mph - N/A   Partly Cloudy
5:00 AM 62.6 °F 50.0 °F 63% 30.12 in 6.2 mi East 13.8 mph - N/A   Partly Cloudy
5:30 AM 64.4 °F 50.0 °F 59% 30.15 in 6.2 mi East 13.8 mph - N/A   Partly Cloudy
6:00 AM 64.4 °F 48.2 °F 56% 30.15 in 6.2 mi East 16.1 mph - N/A   Partly Cloudy
6:30 AM 62.6 °F 48.2 °F 59% 30.18 in 6.2 mi East 15.0 mph - N/A   Partly Cloudy
7:00 AM 64.4 °F 48.2 °F 56% 30.18 in 6.2 mi East 16.1 mph - N/A   Partly Cloudy
7:30 AM 64.4 °F 48.2 °F 56% 30.18 in 6.2 mi East 15.0 mph - N/A   Partly Cloudy
8:00 AM 65 °F 48 °F 43% 30.21 in 7 mi East 13.4 mph - -   Scattered Clouds
8:00 AM 66.2 °F 48.2 °F 52% 30.18 in 6.2 mi East 13.8 mph - N/A   Partly Cloudy
8:30 AM 68.0 °F 46.4 °F 46% 30.21 in 6.2 mi East 13.8 mph - N/A   Partly Cloudy
9:00 AM 68.0 °F 46.4 °F 46% 30.21 in - East 11.5 mph - N/A   Clear
9:30 AM 69.8 °F 46.4 °F 43% 30.21 in - East 11.5 mph - N/A   Clear
10:00 AM 69.8 °F 44.6 °F 40% 30.21 in - ENE 11.5 mph - N/A   Clear
10:30 AM 71.6 °F 42.8 °F 35% 30.21 in 6.2 mi East 13.8 mph - N/A   Partly Cloudy
11:00 AM 73.4 °F 44.6 °F 36% 30.18 in 6.2 mi East 13.8 mph - N/A   Partly Cloudy
11:30 AM 73.4 °F 44.6 °F 36% 30.18 in 6.2 mi East 11.5 mph - N/A   Partly Cloudy
12:00 PM 75.2 °F 46.4 °F 36% 30.18 in 6.2 mi East 10.4 mph - N/A   Partly Cloudy
12:30 PM 73.4 °F 46.4 °F 38% 30.15 in 6.2 mi Variable 4.6 mph - N/A   Partly Cloudy
1:00 PM 73.4 °F 51.8 °F 47% 30.15 in - Variable 8.1 mph - N/A   Clear
1:14 PM 73.4 °F 51.8 °F 47% 30.12 in - WSW 12.7 mph - N/A   Clear
1:30 PM 73.4 °F 51.8 °F 47% 30.12 in - West 11.5 mph - N/A   Clear
2:00 PM 71 °F 50 °F 36% 30.13 in 7 mi West 11.2 mph - -  
2:00 PM 71.6 °F 50.0 °F 46% 30.12 in - West 11.5 mph - N/A   Clear
2:30 PM 73.4 °F 50.0 °F 44% 30.09 in - West 10.4 mph - N/A   Clear
3:00 PM 73.4 °F 48.2 °F 41% 30.09 in - West 8.1 mph - N/A   Clear
3:30 PM 73.4 °F 50.0 °F 44% 30.06 in - NW 5.8 mph - N/A   Clear
4:00 PM 73.4 °F 48.2 °F 41% 30.06 in - NNW 3.5 mph - N/A   Clear
4:30 PM 71.6 °F 48.2 °F 43% 30.06 in - North 3.5 mph - N/A   Clear
5:00 PM 73.4 °F 46.4 °F 38% 30.06 in - NNE 5.8 mph - N/A   Clear
5:30 PM 73.4 °F 48.2 °F 41% 30.06 in - ENE 8.1 mph - N/A   Clear
6:00 PM 71.6 °F 48.2 °F 43% 30.06 in - South 6.9 mph - N/A   Clear
6:30 PM 71.6 °F 48.2 °F 43% 30.06 in - WSW 5.8 mph - N/A   Clear
7:00 PM 69.8 °F 50.0 °F 49% 30.06 in - Variable 3.5 mph - N/A   Clear
7:30 PM 69.8 °F 50.0 °F 49% 30.09 in - SE 3.5 mph - N/A   Clear
8:00 PM 70 °F 46 °F 31% 30.11 in 10 mi ESE 4.5 mph - -  
8:00 PM 69.8 °F 46.4 °F 43% 30.09 in - ESE 4.6 mph - N/A   Clear
8:30 PM 69.8 °F 48.2 °F 46% 30.09 in - East 9.2 mph - N/A   Clear
9:00 PM 68.0 °F 48.2 °F 49% 30.12 in - East 9.2 mph - N/A   Clear
9:30 PM 69.8 °F 48.2 °F 46% 30.12 in - East 10.4 mph - N/A   Clear
10:00 PM 68.0 °F 50.0 °F 52% 30.12 in - ENE 8.1 mph - N/A   Clear
10:30 PM 68.0 °F 50.0 °F 52% 30.12 in - East 10.4 mph - N/A   Clear
11:00 PM 66.2 °F 50.0 °F 56% 30.12 in - East 6.9 mph - N/A   Clear
11:30 PM 66.2 °F 51.8 °F 60% 30.12 in - ENE 5.8 mph - N/A   Clear